timestamp,wind_dir_avg,wind_spd_max_dir,wind_spd_avg,wind_spd_gust,battery_voltage,lat,long
2018-07-18 00:00:00+00:00,228.0,228.0,9.28,10.21,,47.59359,-54.27349
2018-07-18 00:10:00+00:00,222.0,224.0,8.51,9.28,,47.59359,-54.27349
2018-07-18 00:20:00+00:00,221.0,222.0,8.71,9.58,,47.59359,-54.27349
2018-07-18 00:30:00+00:00,228.0,226.0,9.27,10.24,,47.59359,-54.27349
2018-07-18 00:40:00+00:00,227.0,228.0,10.4,11.34,,47.59359,-54.27349
2018-07-18 00:50:00+00:00,230.0,230.0,9.66,10.7,,47.59359,-54.27349
2018-07-18 01:00:00+00:00,231.0,228.0,9.63,10.5,,47.59359,-54.27349
2018-07-18 01:10:00+00:00,231.0,232.0,9.87,11.34,,47.59359,-54.27349
2018-07-18 01:20:00+00:00,231.0,233.0,10.09,11.8,,47.59359,-54.27349
2018-07-18 01:30:00+00:00,230.0,231.0,9.77,11.61,,47.59359,-54.27349
2018-07-18 01:40:00+00:00,232.0,233.0,9.84,10.69,,47.59359,-54.27349
2018-07-18 01:50:00+00:00,230.0,230.0,9.58,11.15,,47.59359,-54.27349
2018-07-18 02:00:00+00:00,230.0,228.0,8.92,9.96,,47.59359,-54.27349
2018-07-18 02:10:00+00:00,234.0,235.0,8.18,8.91,,47.59359,-54.27349
2018-07-18 02:20:00+00:00,230.0,230.0,9.04,9.72,,47.59359,-54.27349
2018-07-18 02:30:00+00:00,229.0,227.0,8.84,9.66,,47.59359,-54.27349
2018-07-18 02:40:00+00:00,227.0,228.0,8.19,9.36,,47.59359,-54.27349
2018-07-18 02:50:00+00:00,225.0,231.0,7.7,9.01,,47.59359,-54.27349
2018-07-18 03:00:00+00:00,222.0,220.0,6.67,7.62,,47.59359,-54.27349
2018-07-18 03:10:00+00:00,225.0,225.0,7.94,8.72,,47.59359,-54.27349
2018-07-18 03:20:00+00:00,224.0,224.0,9.29,10.57,,47.59359,-54.27349
2018-07-18 03:30:00+00:00,226.0,225.0,8.64,9.61,,47.59359,-54.27349
2018-07-18 03:40:00+00:00,232.0,234.0,8.43,9.51,,47.59359,-54.27349
2018-07-18 03:50:00+00:00,231.0,232.0,7.98,9.35,,47.59359,-54.27349
2018-07-18 04:00:00+00:00,229.0,227.0,7.53,9.03,,47.59359,-54.27349
2018-07-18 04:10:00+00:00,225.0,219.0,7.44,8.37,,47.59359,-54.27349
2018-07-18 04:20:00+00:00,224.0,227.0,7.46,8.42,,47.59359,-54.27349
2018-07-18 04:30:00+00:00,224.0,219.0,7.67,8.76,,47.59359,-54.27349
2018-07-18 04:40:00+00:00,227.0,229.0,7.7,8.67,,47.59359,-54.27349
2018-07-18 04:50:00+00:00,234.0,236.0,7.99,8.94,,47.59359,-54.27349
2018-07-18 05:00:00+00:00,232.0,231.0,7.45,8.56,,47.59359,-54.27349
2018-07-18 05:10:00+00:00,224.0,226.0,6.57,7.15,,47.59359,-54.27349
2018-07-18 05:20:00+00:00,219.0,221.0,7.02,8.04,,47.59359,-54.27349
2018-07-18 05:30:00+00:00,220.0,223.0,7.95,9.06,,47.59359,-54.27349
2018-07-18 05:40:00+00:00,219.0,218.0,7.14,7.95,,47.59359,-54.27349
2018-07-18 05:50:00+00:00,220.0,216.0,7.04,7.94,,47.59359,-54.27349
2018-07-18 06:00:00+00:00,218.0,221.0,6.31,6.75,,47.59359,-54.27349
2018-07-18 06:10:00+00:00,214.0,217.0,5.58,6.26,,47.59359,-54.27349
2018-07-18 06:20:00+00:00,213.0,216.0,4.64,5.38,,47.59359,-54.27349
2018-07-18 06:30:00+00:00,221.0,224.0,5.52,6.08,,47.59359,-54.27349
2018-07-18 06:40:00+00:00,226.0,235.0,7.47,9.06,,47.59359,-54.27349
2018-07-18 06:50:00+00:00,231.0,233.0,7.74,8.72,,47.59359,-54.27349
2018-07-18 07:00:00+00:00,233.0,238.0,6.74,7.95,,47.59359,-54.27349
2018-07-18 07:10:00+00:00,230.0,231.0,8.59,9.5,,47.59359,-54.27349
2018-07-18 07:20:00+00:00,226.0,227.0,8.33,9.66,,47.59359,-54.27349
2018-07-18 07:30:00+00:00,229.0,231.0,8.18,8.91,,47.59359,-54.27349
2018-07-18 07:40:00+00:00,229.0,224.0,8.04,9.16,,47.59359,-54.27349
2018-07-18 07:50:00+00:00,231.0,230.0,8.13,8.83,,47.59359,-54.27349
2018-07-18 08:00:00+00:00,233.0,232.0,7.35,8.24,,47.59359,-54.27349
2018-07-18 08:10:00+00:00,237.0,237.0,6.86,7.79,,47.59359,-54.27349
2018-07-18 08:20:00+00:00,238.0,237.0,7.68,8.22,,47.59359,-54.27349
2018-07-18 08:30:00+00:00,234.0,233.0,6.49,7.59,,47.59359,-54.27349
2018-07-18 08:40:00+00:00,219.0,219.0,7.13,7.7,,47.59359,-54.27349
2018-07-18 08:50:00+00:00,226.0,229.0,6.71,7.11,,47.59359,-54.27349
2018-07-18 09:00:00+00:00,227.0,231.0,6.97,7.76,,47.59359,-54.27349
2018-07-18 09:10:00+00:00,222.0,221.0,6.19,6.81,,47.59359,-54.27349
2018-07-18 09:20:00+00:00,222.0,224.0,5.37,6.2,,47.59359,-54.27349
2018-07-18 09:30:00+00:00,221.0,223.0,5.53,6.13,,47.59359,-54.27349
2018-07-18 09:40:00+00:00,228.0,231.0,6.05,6.71,,47.59359,-54.27349
2018-07-18 09:50:00+00:00,222.0,222.0,5.68,6.15,,47.59359,-54.27349
2018-07-18 10:00:00+00:00,217.0,219.0,5.37,5.94,,47.59359,-54.27349
2018-07-18 10:10:00+00:00,221.0,222.0,6.13,6.78,,47.59359,-54.27349
2018-07-18 10:20:00+00:00,227.0,228.0,6.07,6.57,,47.59359,-54.27349
2018-07-18 10:30:00+00:00,224.0,225.0,6.26,7.1,,47.59359,-54.27349
2018-07-18 10:40:00+00:00,227.0,230.0,7.24,8.18,,47.59359,-54.27349
2018-07-18 10:50:00+00:00,223.0,227.0,6.04,6.61,,47.59359,-54.27349
2018-07-18 11:00:00+00:00,225.0,222.0,6.44,7.26,,47.59359,-54.27349
2018-07-18 11:10:00+00:00,217.0,216.0,7.07,7.83,,47.59359,-54.27349
2018-07-18 11:20:00+00:00,220.0,222.0,6.23,6.75,,47.59359,-54.27349
2018-07-18 11:30:00+00:00,217.0,215.0,4.85,5.5,,47.59359,-54.27349
2018-07-18 11:40:00+00:00,221.0,220.0,4.51,5.06,,47.59359,-54.27349
2018-07-18 11:50:00+00:00,221.0,223.0,6.01,6.8,,47.59359,-54.27349
2018-07-18 12:00:00+00:00,219.0,219.0,6.38,7.4,,47.59359,-54.27349
2018-07-18 12:10:00+00:00,231.0,231.0,7.37,8.3,,47.59359,-54.27349
2018-07-18 12:20:00+00:00,223.0,222.0,7.34,8.41,,47.59359,-54.27349
2018-07-18 12:30:00+00:00,225.0,224.0,7.07,8.29,,47.59359,-54.27349
2018-07-18 12:40:00+00:00,219.0,219.0,6.88,7.45,,47.59359,-54.27349
2018-07-18 12:50:00+00:00,223.0,222.0,7.29,8.38,,47.59359,-54.27349
2018-07-18 13:00:00+00:00,220.0,219.0,6.93,7.74,,47.59359,-54.27349
2018-07-18 13:10:00+00:00,215.0,214.0,7.05,7.59,,47.59359,-54.27349
2018-07-18 13:20:00+00:00,219.0,220.0,7.2,7.74,,47.59359,-54.27349
2018-07-18 14:50:00+00:00,225.0,229.0,6.97,7.65,,47.59359,-54.27349
2018-07-18 15:00:00+00:00,226.0,226.0,6.13,6.78,,47.59359,-54.27349
2018-07-18 15:10:00+00:00,218.0,216.0,6.56,7.66,,47.59359,-54.27349
2018-07-18 15:20:00+00:00,216.0,217.0,6.21,6.7,,47.59359,-54.27349
2018-07-18 15:40:00+00:00,214.0,215.0,5.69,6.14,,47.59359,-54.27349
2018-07-18 15:50:00+00:00,216.0,215.0,7.15,8.05,,47.59359,-54.27349
2018-07-18 16:00:00+00:00,219.0,221.0,6.67,7.47,,47.59359,-54.27349
2018-07-18 16:10:00+00:00,220.0,227.0,7.48,8.67,,47.59359,-54.27349
2018-07-18 16:20:00+00:00,223.0,233.0,7.06,9.42,,47.59359,-54.27349
2018-07-18 16:30:00+00:00,221.0,222.0,6.94,7.72,,47.59359,-54.27349
2018-07-18 16:40:00+00:00,218.0,218.0,6.61,7.39,,47.59359,-54.27349
2018-07-18 16:50:00+00:00,219.0,220.0,5.52,6.24,,47.59359,-54.27349
2018-07-18 17:00:00+00:00,212.0,216.0,6.1,6.77,,47.59359,-54.27349
2018-07-18 17:10:00+00:00,216.0,213.0,5.98,7.11,,47.59359,-54.27349
2018-07-18 17:20:00+00:00,221.0,215.0,6.6,8.22,,47.59359,-54.27349
2018-07-18 17:30:00+00:00,224.0,220.0,6.35,7.46,,47.59359,-54.27349
2018-07-18 17:40:00+00:00,227.0,223.0,7.71,8.79,,47.59359,-54.27349
2018-07-18 17:50:00+00:00,224.0,224.0,9.41,10.29,,47.59359,-54.27349
2018-07-18 18:00:00+00:00,223.0,221.0,9.04,10.35,,47.59359,-54.27349
2018-07-18 18:10:00+00:00,223.0,225.0,9.7,10.91,,47.59359,-54.27349
2018-07-18 18:20:00+00:00,226.0,220.0,8.32,9.42,,47.59359,-54.27349
2018-07-18 18:30:00+00:00,224.0,222.0,7.89,8.81,,47.59359,-54.27349
2018-07-18 18:40:00+00:00,217.0,219.0,8.04,8.63,,47.59359,-54.27349
2018-07-18 18:50:00+00:00,214.0,211.0,8.43,9.66,,47.59359,-54.27349
2018-07-18 19:00:00+00:00,221.0,222.0,7.79,8.9,,47.59359,-54.27349
2018-07-18 19:10:00+00:00,222.0,220.0,7.5,8.43,,47.59359,-54.27349
2018-07-18 19:20:00+00:00,218.0,220.0,8.22,9.12,,47.59359,-54.27349
2018-07-18 19:30:00+00:00,215.0,217.0,7.3,8.08,,47.59359,-54.27349
2018-07-18 19:40:00+00:00,213.0,215.0,8.53,9.18,,47.59359,-54.27349
2018-07-18 19:50:00+00:00,220.0,219.0,9.3,10.3,,47.59359,-54.27349
2018-07-18 20:00:00+00:00,219.0,219.0,9.94,10.73,,47.59359,-54.27349
2018-07-18 20:10:00+00:00,219.0,221.0,9.08,10.04,,47.59359,-54.27349
2018-07-18 20:20:00+00:00,221.0,220.0,7.81,8.81,,47.59359,-54.27349
2018-07-18 20:30:00+00:00,219.0,221.0,7.22,8.09,,47.59359,-54.27349
2018-07-18 20:40:00+00:00,221.0,216.0,6.64,7.23,,47.59359,-54.27349
2018-07-18 20:50:00+00:00,220.0,222.0,7.56,8.35,,47.59359,-54.27349
2018-07-18 21:00:00+00:00,219.0,218.0,7.96,8.47,,47.59359,-54.27349
2018-07-18 21:10:00+00:00,221.0,224.0,7.27,8.07,,47.59359,-54.27349
2018-07-18 21:20:00+00:00,220.0,222.0,6.76,7.5,,47.59359,-54.27349
2018-07-18 21:30:00+00:00,222.0,222.0,6.75,7.39,,47.59359,-54.27349
2018-07-18 21:40:00+00:00,227.0,224.0,7.81,8.43,,47.59359,-54.27349
2018-07-18 21:50:00+00:00,224.0,225.0,8.06,9.81,,47.59359,-54.27349
2018-07-18 22:00:00+00:00,225.0,226.0,7.97,9.03,,47.59359,-54.27349
2018-07-18 22:10:00+00:00,224.0,223.0,9.05,9.92,,47.59359,-54.27349
2018-07-18 22:20:00+00:00,222.0,225.0,9.23,12.74,,47.59359,-54.27349
2018-07-18 22:30:00+00:00,219.0,219.0,9.28,10.01,,47.59359,-54.27349
2018-07-18 22:40:00+00:00,223.0,223.0,7.81,8.37,,47.59359,-54.27349
2018-07-18 22:50:00+00:00,220.0,219.0,7.42,8.73,,47.59359,-54.27349
2018-07-18 23:00:00+00:00,217.0,216.0,8.68,9.42,,47.59359,-54.27349
2018-07-18 23:10:00+00:00,221.0,221.0,7.2,8.08,,47.59359,-54.27349
2018-07-18 23:20:00+00:00,233.0,235.0,8.03,9.86,,47.59359,-54.27349
2018-07-18 23:30:00+00:00,235.0,235.0,7.47,8.26,,47.59359,-54.27349
2018-07-18 23:40:00+00:00,232.0,234.0,7.14,7.95,,47.59359,-54.27349
2018-07-18 23:50:00+00:00,237.0,241.0,8.15,9.13,,47.59359,-54.27349
